George/Botha, South Africa

7:41 AM SAST on March 25, 2017 (GMT +0200)
George/Botha

Weather History for 68828 - April, 2013

Change the Weather History Date:

Saturday, April 27, 2013

  Actual Average Record
Temperature  
Mean Temperature 64 °F -  
Max Temperature 76 °F 68 °F - ()
Min Temperature 51 °F 49 °F - ()
Degree Days  
Heating Degree Days 2    
Growing Degree Days 14 (Base 50)    
Moisture  
Dew Point 56 °F    
Average Humidity 81    
Maximum Humidity 100    
Minimum Humidity 51    
Precipitation  
Precipitation 0.00 in - - ()
Sea Level Pressure  
Sea Level Pressure 29.95 in    
Wind  
Wind Speed 3 mph ()    
Max Wind Speed 6 mph    
Max Gust Speed -    
Visibility 6.2 miles    
Events Fog    
T = Trace of Precipitation, MM = Missing Value Source: Averaged Metar Reports

Daily Weather History Graph

Daily Weather History Graph

Search for Another Location

Airport or City:

Trip Planner

Search our weather history database for the weather conditions in past years. The results will help you decide how hot, cold, wet, or windy it might be!

Date:

Astronomy

Apr. 27, 2013 Rise Set
Actual Time 7:02 AM SAST 5:53 PM SAST
Civil Twilight 6:36 AM SAST 6:19 PM SAST
Nautical Twilight 6:07 AM SAST 6:48 PM SAST
Astronomical Twilight 5:37 AM SAST 7:17 PM SAST
Moon 7:20 PM SAST (4/27) 8:40 AM SAST (4/27)
Length of Visible Light 11h 42m
Length of Day
10h 51m
Waning Gibbous, 96% of the Moon is Illuminated
Apr 27
Waning Gibbous
May 2
Last Quarter
May 10
New
May 18
First Quarter
May 25
Full

Hourly Weather History & Observations

Time (SAST) Temp. Dew Point Humidity Pressure Visibility Wind Dir Wind Speed Gust Speed Precip Events Conditions
12:00 AM 55.4 °F 50.0 °F 82% 30.06 in - Variable 2.3 mph - N/A   Clear
1:00 AM 53.6 °F 50.0 °F 88% 30.04 in 6.2 mi NNE 4.6 mph - N/A   Unknown
2:00 AM 54 °F 49 °F 79% 30.05 in 6 mi ENE 4.6 mph - -  
2:00 AM 53.6 °F 50.0 °F 88% 30.04 in - ENE 4.6 mph - N/A   Clear
3:00 AM 51.8 °F 48.2 °F 88% 30.04 in - NE 4.6 mph - N/A   Clear
5:00 AM 57 °F 55 °F 92% 30.03 in 1 mi North 3.5 mph - -   Mist
5:00 AM 57.2 °F 55.4 °F 94% 30.01 in 0.9 mi North 3.5 mph - N/A   Mostly Cloudy
6:00 AM 57.2 °F 55.4 °F 94% 30.01 in - NNE 4.6 mph - N/A   Mostly Cloudy
7:00 AM 57.2 °F 55.4 °F 94% 30.01 in 4.3 mi NNE 3.5 mph - N/A Fog Fog
8:00 AM 58 °F 56 °F 90% 30.01 in 12 mi East 2.3 mph - -   Mostly Cloudy
8:00 AM 57.2 °F 55.4 °F 94% 30.01 in 6.2 mi Variable 2.3 mph - N/A   Mostly Cloudy
9:00 AM 59.0 °F 55.4 °F 88% 30.01 in 6.2 mi SE 3.5 mph - N/A   Mostly Cloudy
10:00 AM 60.8 °F 55.4 °F 82% 30.01 in 6.2 mi Variable 2.3 mph - N/A   Mostly Cloudy
11:00 AM 67 °F 57 °F 63% 29.97 in 12 mi ENE 3.5 mph - -   Scattered Clouds
11:00 AM 66.2 °F 55.4 °F 68% 29.95 in 6.2 mi Variable 3.5 mph - N/A   Partly Cloudy
12:00 PM 73.4 °F 59.0 °F 61% 29.92 in - NE 3.5 mph - N/A   Clear
1:00 PM 73.4 °F 60.8 °F 65% 29.92 in - SE 5.8 mph - N/A   Clear
2:00 PM 75 °F 60 °F 51% 29.87 in 12 mi SE 4.6 mph - -   Clear
2:00 PM 73.4 °F 60.8 °F 65% 29.89 in - SSE 4.6 mph - N/A   Clear
3:00 PM 75.2 °F 60.8 °F 61% 29.89 in - SE 4.6 mph - N/A   Clear
4:00 PM 73.4 °F 60.8 °F 65% 29.86 in - South 4.6 mph - N/A   Clear
5:00 PM 67 °F 59 °F 67% 29.86 in 12 mi 2.3 mph - -   Clear
5:00 PM 66.2 °F 59.0 °F 78% 29.86 in - Variable 2.3 mph - N/A   Clear
6:00 PM 62.6 °F 57.2 °F 82% 29.86 in - SW 4.6 mph - N/A   Clear
7:00 PM 59.0 °F 55.4 °F 88% 29.89 in 3.7 mi WNW 5.8 mph - N/A   Clear
8:00 PM 57 °F 55 °F 92% 29.89 in 2 mi NNW 4.6 mph - -   Mist
8:00 PM 57.2 °F 57.2 °F 100% 29.89 in 1.6 mi North 4.6 mph - N/A   Partly Cloudy
9:00 PM 60.8 °F 57.2 °F 88% 29.86 in - NNE 4.6 mph - N/A   Clear
10:00 PM 60.8 °F 57.2 °F 88% 29.89 in - WNW 4.6 mph - N/A   Clear
11:00 PM 60.8 °F 55.4 °F 82% 29.89 in - NW 4.6 mph - N/A   Clear